Content
SEND FEEDBACK

Daily
Averages
Monthly
Summary
Mauritania

NOUADHIBOU, MAURITANIA


Home > Africa > Mauritania
Elevation: 10 feet     Latitude: 20 56N     Longitude: 017 02W

WEATHER
 
SELECT A DAY
Number of Records: 122,852;   Date Range: 7/1/96 - 12/21/14
 
SHARE

PRINT THIS DATA

[ ← Previous Day ]
WEATHER ALMANAC - MARCH 19, 2013
[ Next Day → ]
[ °C ]   °F
Weather ElementAverageHighLow
Temperature68.4 °F75.2 °F (12:00 pm)64 °F (3:00 am)
Dewpoint61.1 °F63 °F (6:00 am)59 °F (7:00 pm)
Humidity77.2 %96 % (6:00 am)55 % (12:00 pm)
Barometer29.94 in30.01 in (12:00 pm)29.89 in (4:00 pm)
Wind Speed14.9 mph23 mph (3:00 pm)
Weather ElementAverage
Visibility4.6 mi
Wind DirectionNW (311.7 °)

Weather ElementTotal
Precipitation---
Cooling Degree Days4.6 (Base 65)
Growing Degree Days19.6 (Base 50)
Averaged from 30 records on March 19, 2013
WEATHER CONDITIONS BREAKOUT
WIND DIRECTION BREAKOUT
WEATHER BY HOUR - MARCH 19, 2013
[ °C ]   °F
Local TimeTemperatureDewpointHumidityBarometerVisibilityWind DirectionWind SpeedGust SpeedPrecipitationEventsConditions
12:00 AM66.2 °F60.8 °F83 %29.95 in5.0 miNNW (340°)9.2 mph
1:00 AM64.4 °F60.8 °F88 %29.95 in5.0 miNNW (330°)10.4 mph
2:00 AM64.4 °F60.8 °F88 %29.95 in5.0 miNNW (340°)10.4 mph
3:00 AM64.0 °F62.0 °F93 %29.94 in5.0 miNNW (330°)10.4 mph
3:00 AM64.4 °F60.8 °F88 %29.92 in5.0 miNNW (330°)10.4 mph
4:00 AM64.4 °F60.8 °F88 %29.92 in5.0 miNNW (330°)9.2 mphPartly Cloudy
5:00 AM64.4 °F60.8 °F88 %29.92 in5.0 miNNW (330°)6.9 mph
6:00 AM64.4 °F60.8 °F88 %29.92 in5.0 miNNW (330°)6.9 mph
6:00 AM64.0 °F63.0 °F96 %29.95 in5.0 miNNW (330°)8.1 mph
7:00 AM64.4 °F60.8 °F88 %29.95 in5.0 miNNW (330°)8.1 mphPartly Cloudy
8:00 AM64.4 °F60.8 °F88 %29.95 in5.0 miNNW (340°)9.2 mphPartly Cloudy
9:00 AM66.2 °F62.6 °F88 %29.98 in5.0 miNNW (340°)10.4 mphPartly Cloudy
10:00 AM69.8 °F62.6 °F78 %29.98 in5.0 miNorth (360°)15.0 mphScattered Clouds
11:00 AM73.4 °F60.8 °F65 %29.98 in5.0 miNorth (350°)17.3 mphPartly Cloudy
12:00 PM75.2 °F60.8 °F61 %29.98 in5.0 miNNE (20°)18.4 mphPartly Cloudy
12:00 PM74.0 °F61.0 °F55 %30.01 in5.0 miNNE (20°)18.4 mphScattered Clouds
1:00 PM73.4 °F60.8 °F65 %29.95 in5.0 miNW (320°)15.0 mphPartly Cloudy
2:00 PM73.4 °F60.8 °F65 %29.92 in5.0 miNW (320°)18.4 mphPartly Cloudy
3:00 PM74.0 °F62.0 °F57 %29.93 in4.0 miNW (320°)21.9 mphBlowing Sand
3:00 PM73.4 °F60.8 °F65 %29.92 in3.7 miNW (320°)23.0 mphLow Drifting Sand
4:00 PM73.4 °F60.8 °F65 %29.89 in3.7 miNW (320°)20.7 mphLow Drifting Sand
5:00 PM71.6 °F60.8 °F69 %29.89 in3.7 miNW (320°)20.7 mphLow Drifting Sand
6:00 PM71.6 °F60.8 °F69 %29.89 in3.7 miNNW (330°)23.0 mphLow Drifting Sand
6:00 PM71.0 °F61.0 °F63 %29.90 in4.0 miNNW (330°)23.0 mphBlowing Sand
7:00 PM69.8 °F59.0 °F68 %29.89 in3.7 miNNW (330°)19.6 mphLow Drifting Sand
8:00 PM68.0 °F60.8 °F78 %29.89 in3.7 miNNW (330°)16.1 mphLow Drifting Sand
9:00 PM67.0 °F63.0 °F81 %29.94 in4.0 miNNW (340°)16.1 mphWidespread Dust
9:00 PM66.2 °F60.8 °F83 %29.92 in3.7 miNNW (340°)16.1 mphLow Drifting Sand
10:00 PM66.2 °F60.8 °F83 %29.95 in5.0 miNNW (340°)16.1 mph
11:00 PM66.2 °F60.8 °F83 %29.95 in5.0 miNNW (340°)18.4 mph
Hourly data recorded from GQPP, located miles away from Nouadhibou, Mauritania







STORIES FROM OUR PARTNERS